Temperature
-2 -1 -1 -1 -1 -1 -1 -1 -1 -1 -1 0 -0 -1 -1 -1 -1 -1 -1 -1 -0 -0 -0 -0 0 0 1 1 1 1 1 1 1 1 1 1 1 1 1 2 2 2 2 2
-2 -1 -2 -1 -1 -1 -1 -1 -1 -1 -1 -1 -1 -1 -1 -1 -2 -1 -1 -1 -1 -1 -1 -0 -0 -0 0 1 1 1 1 1 1 1 1 1 1 1 1 1 1 1 1 1
-2 -2 -2 -1 -2 -1 -2 -2 -2 -1 -1 -2 -2 -2 -2 -2 -2 -2 -2 -1 -1 -1 -1 -1 -1 -1 -0 -0 0 0 0 0 -0 -0 -0 0 0 0 0 0 0 0 1 1
-3 -2 -1 -0 -2 -2 -2 -2 -2 -2 -2 -2 -2 -2 -2 -1 -2 -2 -2 -2 -2 -2 -1 -1 -1 -1 -1 -1 -0 -1 -1 -1 -1 -1 -1 -1 -1 -1 -0 -0 -0 -0 0 0
-4 -3 -2 -1 -2 -3 -3 -2 -3 -3 -2 -3 -3 -3 -2 -2 -2 -2 -2 -2 -2 -2 -2 -1 -1 -1 -1 -1 -1 -1 -1 -1 -1 -1 -1 -1 -1 -1 -1 -1 -1 -1 -1 -0
-4 -2 -1 -0 -1 -2 -2 -2 -2 -3 -3 -3 -4 -3 -3 -2 -3 -3 -2 -2 -2 -2 -2 -2 -2 -2 -2 -2 -2 -1 -2 -2 -2 -2 -2 -2 -2 -2 -2 -2 -1 -1 -1 -1
-4 -3 -2 -2 -2 -2 -1 -1 -2 -2 -3 -3 -4 -3 -3 -3 -3 -3 -3 -3 -2 -2 -2 -2 -2 -2 -2 -2 -2 -2 -2 -2 -2 -2 -2 -2 -2 -2 -2 -2 -2 -2 -2 -1
-5 -4 -2 -2 -3 -3 -2 -2 -2 -2 -2 -3 -3 -3 -3 -3 -3 -3 -3 -3 -3 -3 -3 -2 -3 -3 -2 -2 -2 -2 -2 -2 -2 -2 -2 -2 -2 -2 -2 -3 -2 -2 -2 -2
-4 -2 -3 -3 -3 -2 -2 -2 -2 -2 -3 -3 -3 -4 -4 -4 -4 -4 -3 -3 -3 -3 -3 -3 -3 -3 -3 -3 -3 -3 -3 -3 -3 -3 -3 -3 -3 -3 -3 -3 -3 -3 -3 -3
-5 -4 -4 -3 -2 -2 -2 -2 -2 -3 -3 -3 -3 -4 -4 -4 -4 -4 -4 -4 -4 -3 -3 -3 -3 -3 -3 -3 -3 -3 -3 -3 -3 -3 -3 -3 -3 -3 -3 -3 -3 -3 -3 -3
-5 -5 -4 -3 -2 -2 -3 -3 -3 -3 -3 -4 -4 -4 -4 -4 -4 -4 -4 -4 -4 -4 -4 -4 -4 -4 -4 -4 -4 -3 -4 -4 -4 -4 -4 -4 -4 -4 -3 -3 -3 -4 -3 -3
-4 -4 -4 -3 -2 -2 -3 -3 -3 -4 -4 -4 -4 -4 -4 -4 -4 -4 -4 -4 -4 -4 -4 -4 -4 -4 -4 -4 -4 -4 -4 -4 -4 -4 -4 -4 -4 -4 -4 -4 -4 -4 -4 -4
-3 -3 -3 -3 -3 -3 -3 -4 -4 -4 -4 -4 -4 -4 -4 -5 -5 -5 -5 -5 -4 -4 -4 -4 -5 -4 -4 -4 -4 -4 -4 -4 -4 -5 -5 -5 -5 -5 -4 -4 -4 -4 -4 -4
-3 -4 -4 -4 -4 -4 -4 -4 -4 -4 -4 -4 -4 -4 -5 -5 -5 -5 -5 -5 -5 -5 -5 -5 -5 -5 -5 -5 -5 -4 -5 -5 -5 -5 -5 -5 -5 -5 -5 -5 -5 -4 -4 -4
-4 -4 -4 -4 -4 -4 -4 -4 -4 -4 -4 -5 -5 -5 -5 -5 -5 -5 -5 -5 -5 -5 -5 -5 -5 -5 -5 -5 -5 -5 -5 -5 -5 -5 -5 -5 -5 -5 -5 -5 -5 -5 -5 -5
-4 -4 -4 -4 -4 -4 -4 -5 -5 -5 -5 -5 -5 -5 -5 -5 -5 -5 -5 -6 -6 -6 -6 -6 -5 -6 -5 -5 -5 -5 -5 -5 -5 -6 -6 -5 -5 -5 -5 -6 -6 -5 -5 -5
-5 -5 -5 -5 -5 -5 -5 -5 -5 -5 -5 -5 -5 -5 -5 -5 -5 -5 -5 -6 -6 -6 -6 -6 -6 -6 -6 -6 -6 -6 -6 -5 -5 -6 -6 -6 -6 -6 -6 -6 -6 -6 -5 -5
-4 -4 -4 -4 -5 -5 -5 -5 -5 -5 -5 -5 -5 -6 -6 -6 -6 -6 -6 -6 -6 -6 -6 -6 -6 -6 -6 -6 -6 -6 -6 -6 -6 -6 -6 -6 -6 -6 -6 -6 -6 -6 -5 -5
-5 -5 -5 -5 -5 -5 -5 -5 -5 -5 -5 -6 -6 -6 -6 -6 -6 -6 -6 -6 -6 -6 -6 -6 -6 -6 -6 -6 -6 -6 -6 -6 -6 -6 -6 -6 -6 -6 -6 -6 -6 -6 -6 -6
-5 -5 -5 -5 -5 -5 -5 -5 -5 -5 -6 -6 -6 -6 -6 -6 -6 -6 -7 -7 -7 -7 -7 -7 -7 -7 -7 -7 -7 -7 -7 -7 -7 -7 -6 -6 -6 -6 -6 -6 -6 -6 -6 -6
-5 -5 -5 -5 -5 -5 -5 -5 -6 -6 -6 -6 -6 -6 -6 -7 -7 -7 -7 -7 -7 -7 -7 -7 -7 -7 -7 -7 -7 -7 -7 -7 -7 -7 -7 -7 -6 -6 -6 -6 -6 -6 -6 -6
-5 -5 -5 -5 -5 -5 -5 -6 -6 -6 -6 -6 -6 -6 -7 -7 -7 -7 -7 -7 -7 -7 -7 -7 -7 -7 -7 -8 -8 -8 -7 -7 -7 -7 -7 -7 -7 -7 -7 -7 -7 -7 -7 -7
-5 -5 -5 -5 -6 -6 -6 -6 -6 -6 -6 -6 -7 -7 -7 -7 -7 -7 -7 -7 -8 -8 -8 -8 -8 -8 -8 -8 -8 -8 -8 -8 -8 -8 -7 -7 -7 -7 -7 -7 -7 -7 -7 -7
-5 -5 -6 -6 -6 -6 -6 -6 -6 -6 -7 -7 -7 -7 -7 -7 -7 -8 -8 -8 -8 -8 -8 -8 -8 -8 -8 -8 -8 -8 -8 -8 -8 -8 -8 -8 -8 -7 -7 -7 -7 -7 -7 -7
-6 -6 -6 -6 -6 -6 -6 -6 -6 -7 -7 -7 -7 -7 -8 -8 -8 -8 -8 -8 -8 -8 -8 -8 -8 -8 -8 -8 -8 -8 -8 -8 -8 -8 -8 -8 -8 -8 -8 -8 -7 -7 -7 -7
-6 -6 -6 -6 -6 -7 -7 -7 -7 -7 -7 -7 -7 -8 -8 -8 -8 -8 -8 -8 -8 -8 -8 -8 -9 -9 -9 -9 -8 -8 -8 -8 -8 -8 -8 -8 -8 -8 -8 -8 -8 -7 -7 -7
-6 -6 -6 -6 -7 -7 -7 -7 -7 -7 -8 -8 -8 -8 -8 -8 -8 -8 -8 -8 -9 -9 -9 -9 -9 -9 -9 -9 -9 -9 -9 -9 -9 -9 -8 -8 -8 -8 -8 -8 -8 -8 -8 -8
Wind_Speed
5 5 4 6 8 8 10 9 9 9 10 12 8 7 7 6 6 6 6 7 7 8 8 7 6 6 5 5 4 4 3 3 4 3 3 3 3 3 3 3 3 3 3 3
4 4 4 7 9 10 11 9 10 10 13 8 6 6 6 6 6 6 8 8 8 8 8 7 6 6 5 5 4 3 3 4 3 3 2 3 3 3 3 3 3 3 3 3
4 4 3 7 9 9 7 7 8 11 11 4 6 7 8 7 6 7 8 9 9 8 8 7 6 5 5 4 4 3 3 3 3 3 2 3 3 2 3 3 3 3 3 3
1 2 6 6 2 6 7 8 9 8 7 6 7 7 7 6 5 7 8 8 8 7 7 6 5 4 4 3 3 3 3 3 3 3 3 3 2 3 3 3 3 3 3 3
2 3 8 6 3 4 4 7 7 9 9 6 4 5 5 3 4 6 7 7 7 6 6 4 4 3 3 3 3 3 3 3 3 3 3 3 3 4 3 3 3 3 3 3
3 3 6 5 1 2 2 5 4 5 6 4 1 4 5 4 6 7 7 6 5 5 4 3 3 2 2 3 3 3 4 4 4 3 3 3 4 4 3 3 3 3 3 3
4 5 8 5 1 3 2 6 3 3 4 3 4 5 5 6 6 6 6 6 5 4 4 4 3 2 2 3 4 5 4 4 4 3 3 3 4 3 2 2 2 2 3 3
4 4 7 2 4 5 5 3 3 3 2 3 4 4 5 5 6 6 6 6 5 4 5 4 3 2 3 4 5 4 4 3 4 3 3 3 2 2 2 2 2 2 3 3
8 7 3 3 4 4 2 3 4 3 3 2 3 4 4 5 5 5 5 5 5 4 5 5 4 2 3 5 4 4 3 4 4 4 3 3 2 2 2 2 2 2 3 3
5 6 5 5 4 4 3 3 3 3 2 2 3 4 4 4 5 5 5 5 4 4 5 5 5 4 4 5 4 3 3 4 4 3 3 3 3 2 2 2 2 3 3 3
5 6 5 5 5 4 3 3 2 2 2 2 2 4 4 4 5 5 5 5 4 4 5 6 6 6 5 5 3 3 3 4 4 3 3 3 3 2 3 3 4 3 3 3
6 5 4 5 3 2 2 3 2 2 3 2 2 3 4 4 4 4 5 5 5 5 5 6 6 6 6 5 3 3 3 3 3 3 2 2 3 3 5 4 6 6 6 5
4 2 3 4 2 1 1 2 2 2 2 3 3 3 3 4 4 4 4 5 5 5 5 6 6 6 6 5 4 3 3 3 3 3 3 3 3 3 4 5 6 6 6 6
3 1 2 3 2 2 2 2 1 2 2 2 2 2 3 3 4 4 5 5 5 5 5 5 6 6 6 5 4 3 3 4 3 2 3 3 2 2 3 3 4 4 5 6
4 4 4 2 1 1 1 1 2 2 3 3 2 3 3 3 4 5 5 5 4 5 5 5 6 7 6 5 4 4 3 3 3 2 2 2 2 2 3 3 3 4 4 4
3 2 2 1 2 1 1 1 1 3 3 3 3 3 3 3 4 4 4 4 4 5 6 6 6 6 6 5 4 3 3 5 4 3 2 2 2 2 3 3 3 4 4 3
2 2 2 2 3 3 2 3 3 3 3 3 3 3 3 3 4 4 5 5 4 5 5 5 6 7 6 4 4 3 3 4 5 3 2 2 2 2 3 3 3 3 3 4
5 5 4 4 4 4 4 3 2 2 3 3 3 2 2 3 4 5 5 5 5 5 5 5 6 6 5 5 4 3 3 3 3 2 2 2 2 2 2 2 3 3 3 3
2 2 3 3 3 3 3 3 3 2 2 2 2 2 3 3 4 4 4 5 5 6 6 6 8 6 5 6 5 3 3 3 3 3 3 4 3 2 2 2 3 3 3 3
1 1 1 1 1 2 2 2 2 2 2 1 1 2 3 4 4 4 4 4 4 4 6 7 6 5 5 6 6 3 3 3 3 3 3 3 3 3 3 3 3 3 3 3
1 1 1 1 1 2 2 2 1 2 2 1 1 2 3 4 3 3 3 4 5 5 5 7 5 4 5 5 6 3 3 3 3 3 3 3 3 3 3 3 3 2 2 2
1 1 2 2 2 2 2 1 1 1 1 2 2 2 3 3 4 3 3 4 5 8 6 4 4 6 7 7 3 3 3 3 3 3 3 3 3 3 3 3 3 2 2 2
2 2 2 2 2 2 2 1 1 1 2 2 2 3 3 3 3 3 4 4 4 7 6 4 7 9 9 5 3 3 3 3 3 3 3 3 3 3 3 3 3 3 2 2
1 1 1 1 0 0 2 2 2 1 2 3 3 3 3 3 3 3 3 6 7 7 4 6 9 9 8 3 3 3 3 3 4 4 3 3 3 3 3 3 3 3 2 2
1 1 1 1 1 2 2 2 1 2 2 2 3 3 2 2 3 3 3 4 6 6 5 6 9 8 5 3 3 3 3 3 3 4 3 3 3 3 3 3 3 3 2 2
1 2 2 3 3 2 1 1 1 2 2 2 3 2 2 2 3 3 3 3 4 5 4 4 5 5 4 4 4 4 4 4 4 4 3 3 3 3 3 3 3 2 2 2
1 1 1 1 1 1 1 1 2 2 2 2 3 3 3 2 2 3 3 3 3 3 3 4 4 4 4 4 4 4 3 3 3 3 3 3 3 3 3 3 3 2 2 2
Wind_Direction
254 265 240 240 236 218 217 220 225 245 250 266 277 285 292 291 299 304 308 312 312 313 314 315 315 313 312 308 309 309 305 295 281 272 267 273 275 276 276 270 269 262 258 260
275 268 258 261 251 234 233 234 240 258 266 264 275 285 289 286 286 292 299 303 306 308 311 310 310 312 316 315 315 311 302 298 298 293 278 271 274 276 282 281 279 267 260 257
266 304 326 268 236 217 219 219 214 239 253 296 294 290 287 282 280 287 294 297 301 304 303 302 304 307 306 307 315 318 309 305 303 293 277 271 275 280 277 274 275 269 263 261
253 20 248 249 198 193 217 241 226 243 267 268 269 282 280 264 265 289 296 296 296 295 297 297 301 308 308 315 318 314 308 306 305 295 283 278 272 270 271 272 269 266 270 271
166 241 276 283 235 183 206 263 225 238 266 275 297 313 289 259 284 286 291 292 291 290 292 294 298 305 318 320 317 315 302 298 299 290 287 286 276 270 270 267 270 269 269 269
163 209 248 259 246 176 138 278 241 227 259 274 317 299 283 305 310 307 310 313 312 317 319 313 311 320 330 316 318 307 299 295 294 288 279 281 281 274 268 260 266 278 281 273
196 229 264 260 229 125 174 262 292 247 250 236 230 248 284 309 314 314 319 325 334 334 328 319 325 337 315 308 301 299 299 295 293 290 283 280 284 279 272 276 283 280 284 280
176 213 257 223 140 186 233 292 295 278 255 247 263 283 298 308 315 325 330 333 340 342 335 335 341 343 326 314 311 314 312 308 308 306 300 299 291 292 286 277 282 282 288 294
199 218 262 201 213 246 258 281 285 277 275 260 280 290 302 309 315 321 323 329 336 337 335 338 342 338 316 313 321 329 330 323 320 318 307 302 294 288 284 268 261 274 277 281
253 264 263 260 264 274 264 263 280 279 277 269 279 289 298 307 315 321 325 328 333 338 338 334 336 333 315 315 321 325 322 319 320 324 323 321 313 300 285 272 267 268 270 279
253 275 297 273 253 260 274 284 299 309 288 265 269 290 294 302 308 314 322 327 333 335 332 328 334 333 327 324 328 331 323 318 322 324 320 325 321 304 290 278 268 266 266 266
232 231 218 258 273 253 258 278 276 298 314 308 281 283 299 304 305 312 319 326 333 336 334 332 334 332 332 331 326 322 321 319 319 319 316 315 320 327 326 312 312 303 290 281
239 257 229 260 280 265 258 281 281 277 276 295 299 296 305 306 311 319 326 330 330 327 327 330 333 330 330 332 330 321 311 312 313 315 314 313 315 321 325 333 332 325 313 304
238 228 252 249 257 287 304 323 333 331 321 311 311 327 325 318 323 330 327 324 324 327 329 331 330 326 325 327 328 325 316 310 308 301 300 302 304 303 305 312 320 322 323 319
244 228 235 254 276 332 353 13 10 347 347 346 346 341 334 327 321 318 321 327 333 334 330 330 328 323 327 329 327 323 319 314 308 302 296 294 297 303 304 303 303 307 312 319
267 261 228 227 251 283 331 355 328 315 324 325 326 325 320 314 313 317 328 339 337 329 325 324 322 322 327 328 323 321 313 310 310 306 304 301 298 298 298 299 300 301 303 306
183 240 246 259 264 269 260 258 256 273 295 300 301 311 321 326 327 326 327 327 317 310 313 315 315 322 329 328 322 317 315 317 317 317 308 301 299 295 291 290 293 294 294 301
212 218 217 221 232 249 263 266 261 272 286 290 305 317 320 320 315 314 319 325 325 323 319 313 314 320 324 324 321 317 317 317 318 309 304 305 304 300 297 297 301 300 306 314
216 216 228 231 228 223 231 246 260 270 287 302 304 299 299 300 305 313 323 330 330 327 326 328 332 335 330 327 328 319 320 321 325 324 315 309 314 312 308 306 304 304 306 311
229 231 231 246 236 214 230 246 252 273 284 291 302 312 313 310 313 316 318 313 305 299 309 321 326 326 325 326 330 323 321 320 321 323 324 320 313 307 304 300 298 300 302 303
243 250 266 275 284 272 247 237 238 265 285 277 269 280 290 301 309 309 311 311 313 317 320 326 332 327 325 326 327 327 325 324 323 321 320 319 318 316 314 309 305 304 308 316
234 233 258 274 282 291 292 274 255 262 281 287 288 291 299 306 310 305 284 279 302 325 332 324 322 325 329 329 331 332 329 325 322 320 318 318 317 316 315 315 313 309 309 313
239 237 249 260 262 274 298 287 265 256 259 268 274 278 282 284 285 293 303 305 308 320 326 317 322 328 333 342 340 334 328 323 319 316 313 312 310 307 307 310 313 314 316 320
245 249 258 269 247 267 292 294 293 281 273 278 273 269 271 290 292 271 273 304 319 321 320 320 329 333 339 346 332 326 322 318 314 311 310 309 309 311 311 312 313 316 318 318
233 237 232 224 242 257 265 290 318 318 316 306 298 289 275 256 267 291 299 301 313 321 317 323 332 338 342 332 327 321 317 314 314 315 314 314 314 316 314 312 309 310 313 312
230 237 239 235 238 245 252 259 280 291 300 308 307 300 299 295 287 293 299 303 307 320 323 320 324 329 328 325 323 321 320 321 325 326 321 317 313 313 313 312 310 307 307 307
253 251 256 275 264 242 237 243 258 273 275 279 292 297 303 309 309 309 309 313 316 319 318 318 318 318 319 320 320 320 320 318 317 318 319 317 314 311 312 311 309 310 310 307
Height
1479 1476 1476 1476 1475 1476 1477 1474 1475 1466 1464 1454 1455 1454 1451 1449 1447 1446 1444 1442 1440 1437 1435 1433 1432 1430 1429 1428 1427 1426 1426 1425 1425 1425 1425 1426 1426 1426 1426 1427 1427 1428 1429 1430
1478 1475 1475 1473 1470 1469 1469 1469 1467 1464 1458 1451 1452 1451 1448 1447 1445 1443 1441 1439 1437 1434 1432 1430 1428 1427 1426 1424 1424 1423 1423 1422 1422 1422 1422 1422 1422 1422 1422 1423 1423 1424 1424 1425
1478 1477 1473 1470 1463 1463 1463 1461 1461 1459 1452 1450 1449 1448 1445 1443 1442 1440 1438 1435 1433 1431 1429 1427 1426 1424 1423 1422 1422 1421 1420 1420 1419 1419 1419 1419 1419 1418 1418 1419 1419 1419 1420 1421
1481 1479 1475 1458 1456 1456 1457 1455 1455 1452 1449 1448 1447 1444 1442 1440 1439 1437 1435 1432 1430 1428 1426 1424 1423 1422 1421 1420 1420 1419 1418 1417 1417 1416 1416 1415 1415 1415 1415 1415 1415 1415 1416 1417
1482 1480 1469 1457 1454 1455 1456 1453 1448 1448 1446 1445 1444 1442 1439 1437 1436 1434 1431 1429 1427 1424 1423 1421 1420 1419 1419 1418 1418 1417 1416 1415 1414 1413 1412 1412 1412 1411 1412 1412 1412 1412 1413 1413
1480 1475 1466 1453 1451 1450 1453 1451 1444 1444 1443 1443 1443 1443 1437 1434 1432 1430 1428 1426 1423 1421 1420 1419 1418 1417 1416 1416 1415 1414 1413 1412 1411 1410 1410 1409 1408 1408 1408 1408 1408 1408 1408 1409
1477 1475 1462 1451 1450 1451 1455 1448 1442 1441 1440 1440 1440 1439 1436 1433 1430 1428 1426 1423 1421 1419 1418 1417 1416 1415 1414 1413 1412 1412 1410 1409 1408 1408 1407 1406 1405 1405 1404 1404 1404 1404 1405 1405
1474 1472 1460 1449 1449 1450 1447 1442 1441 1439 1439 1438 1437 1435 1433 1431 1428 1426 1424 1422 1420 1418 1416 1415 1414 1413 1412 1411 1410 1409 1408 1407 1406 1405 1404 1403 1402 1402 1401 1401 1401 1401 1400 1401
1459 1454 1448 1446 1445 1444 1442 1441 1439 1438 1437 1436 1434 1433 1431 1429 1427 1425 1423 1421 1419 1417 1416 1415 1413 1412 1411 1409 1408 1407 1405 1404 1403 1403 1402 1401 1400 1399 1398 1398 1398 1397 1397 1397
1455 1448 1445 1444 1443 1441 1440 1439 1438 1437 1436 1434 1432 1431 1429 1427 1426 1424 1422 1420 1418 1417 1415 1414 1412 1411 1409 1408 1407 1405 1404 1402 1401 1400 1399 1398 1397 1396 1396 1395 1395 1395 1395 1395
1451 1445 1443 1440 1440 1439 1438 1437 1435 1434 1433 1432 1431 1429 1428 1426 1424 1423 1421 1419 1417 1416 1414 1412 1411 1409 1408 1406 1405 1403 1402 1400 1399 1398 1397 1396 1395 1395 1394 1394 1393 1393 1393 1393
1444 1440 1440 1438 1437 1436 1435 1434 1433 1432 1431 1430 1429 1427 1426 1425 1423 1422 1420 1418 1416 1414 1413 1411 1409 1408 1406 1405 1403 1401 1400 1399 1398 1397 1396 1395 1394 1393 1392 1392 1392 1391 1391 1391
1438 1437 1437 1436 1435 1434 1433 1432 1431 1430 1429 1428 1427 1426 1425 1423 1422 1421 1419 1418 1416 1414 1412 1410 1408 1407 1405 1403 1402 1400 1399 1397 1396 1395 1394 1393 1392 1391 1390 1390 1390 1389 1389 1389
1435 1435 1434 1434 1433 1433 1432 1431 1430 1429 1428 1427 1426 1425 1424 1422 1421 1420 1418 1417 1415 1413 1411 1409 1407 1405 1404 1402 1400 1399 1397 1396 1395 1394 1393 1392 1391 1390 1390 1388 1387 1387 1387 1386
1432 1433 1432 1432 1431 1431 1430 1429 1428 1427 1426 1426 1425 1424 1423 1421 1420 1418 1417 1416 1414 1412 1410 1408 1406 1404 1402 1401 1399 1397 1396 1394 1393 1392 1391 1390 1390 1389 1388 1387 1386 1385 1384 1384
1429 1429 1429 1429 1429 1428 1428 1427 1426 1426 1425 1424 1423 1423 1422 1421 1419 1417 1416 1414 1412 1410 1408 1407 1405 1403 1401 1399 1397 1395 1394 1393 1391 1390 1389 1389 1388 1387 1387 1386 1385 1384 1383 1382
1427 1427 1426 1426 1426 1426 1426 1426 1425 1425 1424 1423 1422 1421 1420 1419 1418 1416 1415 1413 1411 1409 1407 1405 1403 1402 1400 1398 1396 1394 1392 1391 1390 1388 1388 1387 1386 1386 1385 1384 1383 1382 1382 1381
1425 1425 1425 1425 1425 1425 1425 1425 1424 1424 1423 1422 1421 1420 1419 1418 1416 1415 1413 1411 1409 1408 1406 1404 1402 1400 1398 1396 1395 1393 1391 1389 1388 1387 1386 1385 1384 1384 1383 1382 1381 1380 1380 1379
1423 1424 1424 1424 1424 1424 1423 1423 1423 1423 1422 1421 1420 1419 1418 1416 1415 1413 1412 1410 1408 1406 1404 1402 1400 1398 1397 1395 1393 1391 1390 1388 1387 1386 1385 1384 1383 1382 1381 1380 1379 1378 1378 1377
1421 1422 1422 1422 1422 1422 1422 1422 1422 1421 1421 1420 1419 1418 1416 1415 1414 1412 1410 1409 1407 1405 1403 1401 1399 1397 1395 1393 1392 1390 1389 1387 1386 1385 1383 1382 1381 1380 1379 1378 1377 1376 1376 1375
1420 1420 1421 1421 1421 1421 1421 1420 1420 1419 1419 1418 1417 1416 1415 1414 1413 1411 1409 1407 1406 1404 1402 1400 1398 1396 1394 1392 1391 1389 1388 1387 1385 1384 1382 1381 1380 1379 1378 1377 1376 1375 1374 1373
1418 1419 1419 1419 1419 1419 1419 1419 1419 1418 1418 1417 1416 1415 1414 1412 1411 1410 1408 1407 1405 1403 1401 1399 1397 1395 1393 1392 1390 1388 1387 1385 1384 1382 1381 1380 1379 1377 1376 1375 1374 1374 1373 1372
1417 1417 1418 1418 1418 1418 1417 1417 1417 1417 1416 1415 1414 1413 1412 1411 1410 1408 1406 1405 1403 1402 1400 1398 1396 1394 1392 1390 1389 1387 1385 1384 1383 1381 1380 1379 1378 1376 1375 1374 1373 1372 1372 1371
1416 1416 1416 1416 1416 1416 1416 1415 1415 1415 1414 1414 1413 1412 1411 1409 1408 1407 1405 1404 1402 1400 1398 1397 1395 1393 1391 1389 1387 1386 1384 1383 1381 1380 1379 1378 1376 1375 1374 1373 1372 1371 1371 1370
1415 1415 1415 1415 1414 1414 1414 1414 1413 1413 1412 1412 1411 1410 1409 1408 1406 1405 1403 1402 1400 1398 1397 1395 1393 1391 1389 1388 1386 1384 1383 1381 1380 1379 1377 1376 1375 1374 1373 1372 1371 1371 1370 1369
1413 1413 1413 1413 1413 1412 1412 1411 1411 1411 1410 1409 1409 1408 1407 1406 1404 1403 1401 1400 1398 1397 1395 1393 1392 1390 1388 1387 1385 1383 1382 1380 1379 1377 1376 1375 1374 1373 1372 1371 1371 1370 1369 1369
1412 1412 1411 1411 1411 1410 1410 1409 1409 1409 1408 1407 1407 1406 1405 1404 1402 1401 1399 1398 1397 1395 1393 1392 1390 1389 1387 1385 1384 1382 1381 1379 1378 1377 1375 1374 1373 1372 1371 1370 1369 1369 1368 1367